Location: Sihaung
(22.8641°N, 94.0549°E)
Time: 01:57:32
(UTC+00:00)

SAR-Lupe-1 - Pass Details

Date: 03 March 2021
Orbit: 482 x 483 km, 98.2° (Epoch: 30 March)

Event Time Altitude Azimuth Distance (km) Brightness Sun altitude
Rises 12:13:38 0° 15° (NNE) 2,541 7.5 -6.7°
Reaches altitude 10° 12:15:42 10° 18° (NNE) 1,660 6.6 -7.2°
Maximum altitude 12:19:15 67° 101° (E) 524 4.0 -8.0°
Drops below altitude 10° 12:22:47 10° 185° (S) 1,653 6.9 -8.8°
Sets 12:24:50 0° 188° (S) 2,530 7.9 -9.3°
